Time,TemperatureF,DewpointF,PressureIn,WindDirection,WindDirectionDegrees,WindSpeedMPH,WindSpeedGustMPH,Humidity,HourlyPrecipIn,Conditions,Clouds,dailyrainin,SoftwareType,DateUTC
2013-09-19 00:03:00,73.4,66.9,30.21,West,270,0.0,0.0,80,0.00,,---,0.00,VWS V14.01,2013-09-19 05:03:00,
2013-09-19 00:08:00,73.4,66.9,30.21,WSW,248,0.0,0.0,80,0.00,,---,0.00,VWS V14.01,2013-09-19 05:08:00,
2013-09-19 00:13:00,73.2,67.1,30.21,WSW,248,0.0,0.0,81,0.00,,---,0.00,VWS V14.01,2013-09-19 05:13:00,
2013-09-19 00:19:00,73.2,67.1,30.21,West,270,0.0,0.0,81,0.00,,---,0.00,VWS V14.01,2013-09-19 05:19:00,
2013-09-19 00:24:00,73.0,66.9,30.21,West,270,0.0,0.0,81,0.00,,---,0.00,VWS V14.01,2013-09-19 05:24:00,
2013-09-19 00:29:00,73.0,66.9,30.21,SW,225,0.0,0.0,81,0.00,,---,0.00,VWS V14.01,2013-09-19 05:29:00,
2013-09-19 00:34:00,72.9,66.7,30.21,WSW,248,0.0,0.0,81,0.00,,---,0.00,VWS V14.01,2013-09-19 05:34:00,
2013-09-19 00:39:00,72.9,66.7,30.21,WSW,248,0.0,1.6,81,0.00,,---,0.00,VWS V14.01,2013-09-19 05:39:00,
2013-09-19 00:44:00,72.7,66.5,30.21,WSW,248,0.0,0.0,81,0.00,,---,0.00,VWS V14.01,2013-09-19 05:44:00,
2013-09-19 00:49:00,72.7,66.9,30.21,WSW,248,3.4,3.4,82,0.00,,---,0.00,VWS V14.01,2013-09-19 05:49:00,
2013-09-19 00:54:00,72.7,66.9,30.21,WSW,248,0.0,0.0,82,0.00,,---,0.00,VWS V14.01,2013-09-19 05:54:00,
2013-09-19 00:59:00,72.5,66.7,30.21,West,270,0.0,0.0,82,0.00,,---,0.00,VWS V14.01,2013-09-19 05:59:00,
2013-09-19 01:04:00,72.5,66.7,30.21,West,270,0.0,0.0,82,0.00,,---,0.00,VWS V14.01,2013-09-19 06:04:00,
2013-09-19 01:09:00,72.5,66.7,30.21,West,270,1.6,2.0,82,0.00,,---,0.00,VWS V14.01,2013-09-19 06:09:00,
2013-09-19 01:14:00,72.3,66.9,30.21,WSW,248,0.0,0.0,83,0.00,,---,0.00,VWS V14.01,2013-09-19 06:14:00,
2013-09-19 01:19:00,72.3,66.9,30.21,WSW,248,0.0,0.0,83,0.00,,---,0.00,VWS V14.01,2013-09-19 06:19:00,
2013-09-19 01:24:00,72.3,66.9,30.21,West,270,0.0,0.0,83,0.00,,---,0.00,VWS V14.01,2013-09-19 06:24:00,
2013-09-19 01:29:00,72.3,66.9,30.21,WSW,248,0.0,0.0,83,0.00,,---,0.00,VWS V14.01,2013-09-19 06:29:00,
2013-09-19 01:34:00,72.3,66.9,30.21,WSW,248,0.0,0.0,83,0.00,,---,0.00,VWS V14.01,2013-09-19 06:34:00,
2013-09-19 01:39:00,72.1,66.7,30.21,WSW,248,0.0,0.0,83,0.00,,---,0.00,VWS V14.01,2013-09-19 06:39:00,
2013-09-19 01:44:00,72.1,66.7,30.21,WSW,248,0.0,0.0,83,0.00,,---,0.00,VWS V14.01,2013-09-19 06:44:00,
2013-09-19 01:49:00,72.1,67.0,30.21,WSW,248,0.0,0.0,84,0.00,,---,0.00,VWS V14.01,2013-09-19 06:49:00,
2013-09-19 01:54:00,72.1,67.0,30.21,West,270,0.0,0.0,84,0.00,,---,0.00,VWS V14.01,2013-09-19 06:54:00,
2013-09-19 01:59:00,72.3,67.2,30.21,West,270,0.0,0.0,84,0.00,,---,0.00,VWS V14.01,2013-09-19 06:59:00,
2013-09-19 02:04:00,72.1,67.0,30.21,West,270,1.6,1.6,84,0.00,,---,0.00,VWS V14.01,2013-09-19 07:04:00,
2013-09-19 02:09:00,72.1,67.0,30.21,West,270,0.0,0.0,84,0.00,,---,0.00,VWS V14.01,2013-09-19 07:09:00,
2013-09-19 02:14:00,72.3,67.2,30.18,SW,225,1.3,1.3,84,0.00,,---,0.00,VWS V14.01,2013-09-19 07:14:00,
2013-09-19 02:19:00,72.3,67.6,30.18,WSW,248,0.0,0.0,85,0.00,,---,0.00,VWS V14.01,2013-09-19 07:19:00,
2013-09-19 02:24:00,72.3,67.6,30.18,WSW,248,0.0,0.0,85,0.00,,---,0.00,VWS V14.01,2013-09-19 07:24:00,
2013-09-19 02:29:00,72.3,67.6,30.21,WSW,248,0.0,0.0,85,0.00,,---,0.00,VWS V14.01,2013-09-19 07:29:00,
2013-09-19 02:34:00,72.3,67.6,30.21,WSW,248,0.0,0.0,85,0.00,,---,0.00,VWS V14.01,2013-09-19 07:34:00,
2013-09-19 02:39:00,72.3,67.6,30.21,WSW,248,0.0,0.0,85,0.00,,---,0.00,VWS V14.01,2013-09-19 07:39:00,
2013-09-19 02:44:00,72.3,67.6,30.21,WSW,248,0.0,0.0,85,0.00,,---,0.00,VWS V14.01,2013-09-19 07:44:00,
2013-09-19 02:49:00,72.3,67.6,30.21,West,270,0.0,0.0,85,0.00,,---,0.00,VWS V14.01,2013-09-19 07:49:00,
2013-09-19 02:54:00,72.3,67.6,30.21,WSW,248,0.0,0.0,85,0.00,,---,0.00,VWS V14.01,2013-09-19 07:54:00,
2013-09-19 02:59:00,72.3,67.6,30.18,WSW,248,0.0,0.0,85,0.00,,---,0.00,VWS V14.01,2013-09-19 07:59:00,
2013-09-19 03:04:00,72.3,67.6,30.18,WSW,248,0.0,0.0,85,0.00,,---,0.00,VWS V14.01,2013-09-19 08:04:00,
2013-09-19 03:09:00,72.3,67.6,30.18,WSW,248,0.0,0.0,85,0.00,,---,0.00,VWS V14.01,2013-09-19 08:09:00,
2013-09-19 03:14:00,72.3,67.6,30.21,WSW,248,0.0,0.0,85,0.00,,---,0.00,VWS V14.01,2013-09-19 08:14:00,
2013-09-19 03:19:00,72.3,67.6,30.21,WSW,248,0.0,0.0,85,0.00,,---,0.00,VWS V14.01,2013-09-19 08:19:00,
2013-09-19 03:24:00,72.3,67.6,30.21,West,270,0.0,0.0,85,0.00,,---,0.00,VWS V14.01,2013-09-19 08:24:00,
2013-09-19 03:29:00,72.3,67.6,30.18,West,270,0.0,0.0,85,0.00,,---,0.00,VWS V14.01,2013-09-19 08:29:00,
2013-09-19 03:34:00,72.3,67.6,30.18,West,270,0.0,0.0,85,0.00,,---,0.00,VWS V14.01,2013-09-19 08:34:00,
2013-09-19 03:39:00,72.3,67.6,30.18,SW,225,0.0,0.0,85,0.00,,---,0.00,VWS V14.01,2013-09-19 08:39:00,
2013-09-19 03:44:00,72.3,67.6,30.18,WSW,248,0.0,0.0,85,0.00,,---,0.00,VWS V14.01,2013-09-19 08:44:00,
2013-09-19 03:49:00,72.3,67.6,30.18,WSW,248,0.0,0.0,85,0.00,,---,0.00,VWS V14.01,2013-09-19 08:49:00,
2013-09-19 03:54:00,72.3,67.6,30.18,WSW,248,0.0,0.0,85,0.00,,---,0.00,VWS V14.01,2013-09-19 08:54:00,
2013-09-19 03:58:00,72.3,67.6,30.18,WSW,248,0.0,0.0,85,0.00,,---,0.00,VWS V14.01,2013-09-19 08:58:00,
2013-09-19 04:03:00,72.3,67.6,30.18,WSW,248,0.0,0.0,85,0.00,,---,0.00,VWS V14.01,2013-09-19 09:03:00,
2013-09-19 04:08:00,72.1,67.4,30.18,WSW,248,0.0,0.0,85,0.00,,---,0.00,VWS V14.01,2013-09-19 09:08:00,
2013-09-19 04:13:00,72.1,67.4,30.18,WSW,248,0.0,0.0,85,0.00,,---,0.00,VWS V14.01,2013-09-19 09:13:00,
2013-09-19 04:18:00,72.1,67.4,30.18,West,270,0.0,0.0,85,0.00,,---,0.00,VWS V14.01,2013-09-19 09:18:00,
2013-09-19 04:23:00,72.1,67.4,30.18,WSW,248,0.0,0.0,85,0.00,,---,0.00,VWS V14.01,2013-09-19 09:23:00,
2013-09-19 04:28:00,72.1,67.4,30.18,WSW,248,0.0,0.0,85,0.00,,---,0.00,VWS V14.01,2013-09-19 09:28:00,
2013-09-19 04:33:00,72.1,67.4,30.18,WSW,248,0.0,0.0,85,0.00,,---,0.00,VWS V14.01,2013-09-19 09:33:00,
2013-09-19 04:38:00,72.1,67.4,30.18,West,270,0.0,0.0,85,0.00,,---,0.00,VWS V14.01,2013-09-19 09:38:00,
2013-09-19 04:43:00,72.1,67.4,30.18,West,270,0.0,0.0,85,0.00,,---,0.00,VWS V14.01,2013-09-19 09:43:00,
2013-09-19 04:48:00,72.3,67.6,30.18,WSW,248,0.0,0.0,85,0.00,,---,0.00,VWS V14.01,2013-09-19 09:48:00,
2013-09-19 04:53:00,72.3,67.6,30.18,West,270,0.0,0.0,85,0.00,,---,0.00,VWS V14.01,2013-09-19 09:53:00,
2013-09-19 04:58:00,72.3,67.6,30.18,West,270,0.0,0.0,85,0.00,,---,0.00,VWS V14.01,2013-09-19 09:58:00,
2013-09-19 05:03:00,72.1,67.4,30.18,WSW,248,0.0,0.0,85,0.00,,---,0.00,VWS V14.01,2013-09-19 10:03:00,
2013-09-19 05:08:00,72.1,67.4,30.18,WSW,248,0.0,0.0,85,0.00,,---,0.00,VWS V14.01,2013-09-19 10:08:00,
2013-09-19 05:13:00,72.1,67.4,30.18,WSW,248,0.0,0.0,85,0.00,,---,0.00,VWS V14.01,2013-09-19 10:13:00,
2013-09-19 05:18:00,72.3,67.6,30.18,WSW,248,0.0,0.0,85,0.00,,---,0.00,VWS V14.01,2013-09-19 10:18:00,
2013-09-19 05:23:00,72.3,67.6,30.18,WSW,248,0.0,0.0,85,0.00,,---,0.00,VWS V14.01,2013-09-19 10:23:00,
2013-09-19 05:28:00,72.1,67.4,30.18,WNW,292,0.0,0.0,85,0.00,,---,0.00,VWS V14.01,2013-09-19 10:28:00,
2013-09-19 05:33:00,72.1,67.4,30.18,WSW,248,2.9,2.9,85,0.00,,---,0.00,VWS V14.01,2013-09-19 10:33:00,
2013-09-19 05:38:00,72.1,67.4,30.18,West,270,0.0,0.0,85,0.00,,---,0.00,VWS V14.01,2013-09-19 10:38:00,
2013-09-19 05:43:00,72.1,67.4,30.18,WSW,248,0.0,0.0,85,0.00,,---,0.00,VWS V14.01,2013-09-19 10:43:00,
2013-09-19 05:48:00,72.1,67.4,30.18,WSW,248,0.0,0.0,85,0.00,,---,0.00,VWS V14.01,2013-09-19 10:48:00,
2013-09-19 05:53:00,72.0,67.2,30.18,West,270,0.0,0.0,85,0.00,,---,0.00,VWS V14.01,2013-09-19 10:53:00,
2013-09-19 05:58:00,72.0,67.2,30.18,West,270,0.0,0.0,85,0.00,,---,0.00,VWS V14.01,2013-09-19 10:58:00,
2013-09-19 06:03:00,72.0,67.2,30.18,WSW,248,0.0,0.0,85,0.00,,---,0.00,VWS V14.01,2013-09-19 11:03:00,
2013-09-19 06:08:00,71.8,67.0,30.18,WSW,248,0.0,0.0,85,0.00,,---,0.00,VWS V14.01,2013-09-19 11:08:00,
2013-09-19 06:13:00,71.8,67.0,30.18,WSW,248,0.0,0.0,85,0.00,,---,0.00,VWS V14.01,2013-09-19 11:13:00,
2013-09-19 06:18:00,71.8,67.0,30.18,WSW,248,0.0,0.0,85,0.00,,---,0.00,VWS V14.01,2013-09-19 11:18:00,
2013-09-19 06:23:00,71.8,67.0,30.18,West,270,0.0,0.0,85,0.00,,---,0.00,VWS V14.01,2013-09-19 11:23:00,
2013-09-19 06:28:00,71.8,67.0,30.21,WSW,248,0.0,0.0,85,0.00,,---,0.00,VWS V14.01,2013-09-19 11:28:00,
2013-09-19 06:33:00,71.8,67.0,30.21,WSW,248,0.0,0.0,85,0.00,,---,0.00,VWS V14.01,2013-09-19 11:33:00,
2013-09-19 06:38:00,71.8,67.0,30.21,West,270,0.0,0.0,85,0.00,,---,0.00,VWS V14.01,2013-09-19 11:38:00,
2013-09-19 06:43:00,71.8,67.0,30.21,WSW,248,0.0,0.0,85,0.00,,---,0.00,VWS V14.01,2013-09-19 11:43:00,
2013-09-19 06:48:00,71.8,67.4,30.21,West,270,0.0,0.0,86,0.00,,---,0.00,VWS V14.01,2013-09-19 11:48:00,
2013-09-19 06:53:00,71.6,67.2,30.21,WNW,292,0.0,0.0,86,0.00,,---,0.00,VWS V14.01,2013-09-19 11:53:00,
2013-09-19 06:58:00,71.6,67.2,30.21,West,270,0.0,0.0,86,0.00,,---,0.00,VWS V14.01,2013-09-19 11:58:00,
2013-09-19 07:03:00,71.6,67.2,30.21,WSW,248,0.0,0.0,86,0.00,,---,0.00,VWS V14.01,2013-09-19 12:03:00,
2013-09-19 07:08:00,71.8,67.4,30.21,WSW,248,0.0,0.0,86,0.00,,---,0.00,VWS V14.01,2013-09-19 12:08:00,
2013-09-19 07:13:00,71.8,67.4,30.21,WSW,248,2.0,2.0,86,0.00,,---,0.00,VWS V14.01,2013-09-19 12:13:00,
2013-09-19 07:18:00,72.0,67.6,30.21,West,270,0.0,0.0,86,0.00,,---,0.00,VWS V14.01,2013-09-19 12:18:00,
2013-09-19 07:23:00,72.1,67.7,30.21,WSW,248,0.0,0.0,86,0.00,,---,0.00,VWS V14.01,2013-09-19 12:23:00,
2013-09-19 07:28:00,72.1,67.7,30.21,West,270,0.0,0.0,86,0.00,,---,0.00,VWS V14.01,2013-09-19 12:28:00,
2013-09-19 07:33:00,72.3,67.9,30.21,WSW,248,0.0,0.0,86,0.00,,---,0.00,VWS V14.01,2013-09-19 12:33:00,
2013-09-19 07:38:00,72.3,67.9,30.21,West,270,0.0,0.0,86,0.00,,---,0.00,VWS V14.01,2013-09-19 12:38:00,
2013-09-19 07:43:00,72.5,68.1,30.21,West,270,0.0,0.0,86,0.00,,---,0.00,VWS V14.01,2013-09-19 12:43:00,
2013-09-19 07:48:00,72.5,67.7,30.21,West,270,0.0,0.0,85,0.00,,---,0.00,VWS V14.01,2013-09-19 12:48:00,
2013-09-19 07:53:00,72.7,67.9,30.21,SW,225,0.0,0.0,85,0.00,,---,0.00,VWS V14.01,2013-09-19 12:53:00,
2013-09-19 07:58:00,72.7,67.9,30.21,West,270,0.0,0.0,85,0.00,,---,0.00,VWS V14.01,2013-09-19 12:58:00,
2013-09-19 08:03:00,72.7,67.9,30.21,WSW,248,2.0,3.4,85,0.00,,---,0.00,VWS V14.01,2013-09-19 13:03:00,
2013-09-19 08:08:00,72.7,67.9,30.21,West,270,0.0,0.0,85,0.00,,---,0.00,VWS V14.01,2013-09-19 13:08:00,
2013-09-19 08:13:00,72.7,67.6,30.21,WSW,248,0.0,0.0,84,0.00,,---,0.00,VWS V14.01,2013-09-19 13:13:00,
2013-09-19 08:18:00,72.9,67.8,30.21,WSW,248,0.0,0.0,84,0.00,,---,0.00,VWS V14.01,2013-09-19 13:18:00,
2013-09-19 08:23:00,73.0,68.3,30.21,West,270,1.1,1.3,85,0.00,,---,0.00,VWS V14.01,2013-09-19 13:23:00,
2013-09-19 08:28:00,73.6,68.4,30.21,WNW,292,4.0,4.0,84,0.00,,---,0.00,VWS V14.01,2013-09-19 13:28:00,
2013-09-19 08:33:00,74.1,69.0,30.21,WNW,292,0.0,0.0,84,0.00,,---,0.00,VWS V14.01,2013-09-19 13:33:00,
2013-09-19 08:38:00,74.7,69.5,30.21,WNW,292,3.1,3.1,84,0.00,,---,0.00,VWS V14.01,2013-09-19 13:38:00,
2013-09-19 08:43:00,75.0,69.5,30.21,WSW,248,2.7,2.9,83,0.00,,---,0.00,VWS V14.01,2013-09-19 13:43:00,
2013-09-19 08:48:00,75.0,68.8,30.21,WNW,292,2.9,3.1,81,0.00,,---,0.00,VWS V14.01,2013-09-19 13:48:00,
2013-09-19 08:53:00,75.0,68.4,30.21,West,270,4.7,4.7,80,0.00,,---,0.00,VWS V14.01,2013-09-19 13:53:00,
2013-09-19 08:58:00,75.0,68.4,30.21,West,270,2.9,5.6,80,0.00,,---,0.00,VWS V14.01,2013-09-19 13:58:00,
2013-09-19 09:03:00,75.4,68.8,30.21,WNW,292,3.4,3.4,80,0.00,,---,0.00,VWS V14.01,2013-09-19 14:03:00,
2013-09-19 09:08:00,75.6,68.6,30.21,WSW,248,1.6,2.5,79,0.00,,---,0.00,VWS V14.01,2013-09-19 14:08:00,
2013-09-19 09:13:00,76.1,69.1,30.21,West,270,1.1,1.1,79,0.00,,---,0.00,VWS V14.01,2013-09-19 14:13:00,
2013-09-19 09:18:00,76.5,69.1,30.21,WNW,292,3.1,3.1,78,0.00,,---,0.00,VWS V14.01,2013-09-19 14:18:00,
2013-09-19 09:23:00,76.8,69.4,30.21,West,270,2.9,2.9,78,0.00,,---,0.00,VWS V14.01,2013-09-19 14:23:00,
2013-09-19 09:28:00,76.8,68.7,30.21,WNW,292,8.1,8.1,76,0.00,,---,0.00,VWS V14.01,2013-09-19 14:28:00,
2013-09-19 09:33:00,76.8,68.3,30.21,West,270,4.0,4.0,75,0.00,,---,0.00,VWS V14.01,2013-09-19 14:33:00,
2013-09-19 09:38:00,77.4,68.8,30.21,WSW,248,0.0,4.7,75,0.00,,---,0.00,VWS V14.01,2013-09-19 14:38:00,
2013-09-19 09:43:00,77.9,69.3,30.21,West,270,3.1,3.1,75,0.00,,---,0.00,VWS V14.01,2013-09-19 14:43:00,
2013-09-19 09:48:00,78.4,69.5,30.21,WNW,292,2.5,2.5,74,0.00,,---,0.00,VWS V14.01,2013-09-19 14:48:00,
2013-09-19 09:53:00,78.4,69.1,30.21,West,270,4.0,5.4,73,0.00,,---,0.00,VWS V14.01,2013-09-19 14:53:00,
2013-09-19 09:58:00,78.6,68.4,30.21,WNW,292,3.6,3.6,71,0.00,,---,0.00,VWS V14.01,2013-09-19 14:58:00,
2013-09-19 10:03:00,78.8,68.2,30.21,West,270,1.1,3.8,70,0.00,,---,0.00,VWS V14.01,2013-09-19 15:03:00,
2013-09-19 10:08:00,79.0,67.9,30.21,SW,225,3.6,3.6,69,0.00,,---,0.00,VWS V14.01,2013-09-19 15:08:00,
2013-09-19 10:13:00,79.0,67.9,30.24,WNW,292,0.0,2.7,69,0.00,,---,0.00,VWS V14.01,2013-09-19 15:13:00,
2013-09-19 10:18:00,79.3,68.3,30.24,WNW,292,3.6,3.8,69,0.00,,---,0.00,VWS V14.01,2013-09-19 15:18:00,
2013-09-19 10:23:00,79.3,68.3,30.24,West,270,2.5,4.9,69,0.00,,---,0.00,VWS V14.01,2013-09-19 15:23:00,
2013-09-19 10:28:00,79.5,68.0,30.24,WNW,292,1.3,7.2,68,0.00,,---,0.00,VWS V14.01,2013-09-19 15:28:00,
2013-09-19 10:33:00,79.5,68.0,30.24,West,270,3.1,3.1,68,0.00,,---,0.00,VWS V14.01,2013-09-19 15:33:00,
2013-09-19 10:38:00,79.9,68.4,30.24,West,270,2.7,4.3,68,0.00,,---,0.00,VWS V14.01,2013-09-19 15:38:00,
2013-09-19 10:43:00,80.2,68.7,30.24,West,270,2.9,6.5,68,0.00,,---,0.00,VWS V14.01,2013-09-19 15:43:00,
2013-09-19 10:48:00,80.6,68.6,30.24,WNW,292,3.4,3.4,67,0.00,,---,0.00,VWS V14.01,2013-09-19 15:48:00,
2013-09-19 10:53:00,80.8,68.8,30.24,SW,225,2.9,2.9,67,0.00,,---,0.00,VWS V14.01,2013-09-19 15:53:00,
2013-09-19 10:58:00,80.4,67.6,30.24,West,270,3.1,5.6,65,0.00,,---,0.00,VWS V14.01,2013-09-19 15:58:00,
2013-09-19 11:03:00,80.6,68.2,30.24,WNW,292,2.5,5.8,66,0.00,,---,0.00,VWS V14.01,2013-09-19 16:03:00,
2013-09-19 11:08:00,80.6,67.8,30.24,West,270,2.9,3.1,65,0.00,,---,0.00,VWS V14.01,2013-09-19 16:08:00,
2013-09-19 11:13:00,80.6,67.8,30.24,West,270,2.7,3.8,65,0.00,,---,0.00,VWS V14.01,2013-09-19 16:13:00,
2013-09-19 11:18:00,80.6,67.8,30.24,WNW,292,1.3,3.8,65,0.00,,---,0.00,VWS V14.01,2013-09-19 16:18:00,
2013-09-19 11:23:00,81.1,68.3,30.24,WNW,292,3.8,8.7,65,0.00,,---,0.00,VWS V14.01,2013-09-19 16:23:00,
2013-09-19 11:28:00,81.9,69.4,30.24,WSW,248,4.7,4.7,66,0.00,,---,0.00,VWS V14.01,2013-09-19 16:28:00,
2013-09-19 11:33:00,81.9,68.5,30.24,SSW,202,2.7,5.4,64,0.00,,---,0.00,VWS V14.01,2013-09-19 16:33:00,
2013-09-19 11:38:00,82.0,68.2,30.24,NNW,338,1.6,8.1,63,0.00,,---,0.00,VWS V14.01,2013-09-19 16:38:00,
2013-09-19 11:43:00,82.2,68.4,30.24,West,270,3.4,3.4,63,0.00,,---,0.00,VWS V14.01,2013-09-19 16:43:00,
2013-09-19 11:48:00,83.1,69.7,30.24,WNW,292,3.1,3.1,64,0.00,,---,0.00,VWS V14.01,2013-09-19 16:48:00,
2013-09-19 11:53:00,83.1,68.3,30.24,WNW,292,2.7,6.3,61,0.00,,---,0.00,VWS V14.01,2013-09-19 16:53:00,
2013-09-19 11:58:00,83.3,68.9,30.24,WNW,292,2.7,4.0,62,0.00,,---,0.00,VWS V14.01,2013-09-19 16:58:00,
2013-09-19 12:03:00,83.7,69.3,30.24,WNW,292,0.0,5.8,62,0.00,,---,0.00,VWS V14.01,2013-09-19 17:03:00,
2013-09-19 12:08:00,84.4,69.9,30.24,WNW,292,4.0,5.6,62,0.00,,---,0.00,VWS V14.01,2013-09-19 17:08:00,
2013-09-19 12:13:00,84.4,69.0,30.21,WNW,292,3.1,3.8,60,0.00,,---,0.00,VWS V14.01,2013-09-19 17:13:00,
2013-09-19 12:18:00,84.6,69.2,30.21,SW,225,2.9,4.7,60,0.00,,---,0.00,VWS V14.01,2013-09-19 17:18:00,
2013-09-19 12:23:00,84.7,68.8,30.21,WSW,248,2.7,2.7,59,0.00,,---,0.00,VWS V14.01,2013-09-19 17:23:00,
2013-09-19 12:28:00,84.9,69.0,30.21,WSW,248,2.5,5.4,59,0.00,,---,0.00,VWS V14.01,2013-09-19 17:28:00,
2013-09-19 12:32:00,84.9,68.5,30.21,NNW,338,5.8,5.8,58,0.00,,---,0.00,VWS V14.01,2013-09-19 17:32:00,
2013-09-19 12:37:00,85.3,69.3,30.21,NNW,338,1.1,2.7,59,0.00,,---,0.00,VWS V14.01,2013-09-19 17:37:00,
2013-09-19 12:42:00,85.8,69.8,30.21,South,180,2.2,4.9,59,0.00,,---,0.00,VWS V14.01,2013-09-19 17:42:00,
2013-09-19 12:47:00,86.4,69.8,30.21,WNW,292,4.3,4.3,58,0.00,,---,0.00,VWS V14.01,2013-09-19 17:47:00,
2013-09-19 12:52:00,86.7,69.7,30.21,NW,315,3.1,3.1,57,0.00,,---,0.00,VWS V14.01,2013-09-19 17:52:00,
2013-09-19 12:57:00,86.9,68.8,30.21,NE,45,1.1,3.8,55,0.00,,---,0.00,VWS V14.01,2013-09-19 17:57:00,
2013-09-19 13:02:00,86.7,68.1,30.21,West,270,5.8,10.5,54,0.00,,---,0.00,VWS V14.01,2013-09-19 18:02:00,
2013-09-19 13:07:00,86.5,68.5,30.21,WSW,248,2.2,3.6,55,0.00,,---,0.00,VWS V14.01,2013-09-19 18:07:00,
2013-09-19 13:12:00,86.4,68.3,30.21,West,270,2.9,3.6,55,0.00,,---,0.00,VWS V14.01,2013-09-19 18:12:00,
2013-09-19 13:17:00,86.4,68.3,30.21,NNE,22,2.9,2.9,55,0.00,,---,0.00,VWS V14.01,2013-09-19 18:17:00,
2013-09-19 13:22:00,86.4,68.3,30.21,WNW,292,4.0,4.0,55,0.00,,---,0.00,VWS V14.01,2013-09-19 18:22:00,
2013-09-19 13:27:00,86.4,68.3,30.21,NE,45,5.8,5.8,55,0.00,,---,0.00,VWS V14.01,2013-09-19 18:27:00,
2013-09-19 13:32:00,86.4,67.8,30.21,West,270,4.0,4.7,54,0.00,,---,0.00,VWS V14.01,2013-09-19 18:32:00,
2013-09-19 13:37:00,86.7,68.6,30.21,WNW,292,1.3,3.6,55,0.00,,---,0.00,VWS V14.01,2013-09-19 18:37:00,
2013-09-19 13:42:00,87.1,68.4,30.21,WNW,292,5.4,6.3,54,0.00,,---,0.00,VWS V14.01,2013-09-19 18:42:00,
2013-09-19 13:47:00,87.1,68.4,30.21,West,270,2.7,2.7,54,0.00,,---,0.00,VWS V14.01,2013-09-19 18:47:00,
2013-09-19 13:52:00,86.5,67.9,30.21,NNE,22,4.3,4.3,54,0.00,,---,0.00,VWS V14.01,2013-09-19 18:52:00,
2013-09-19 13:57:00,86.7,68.1,30.21,WNW,292,4.7,4.7,54,0.00,,---,0.00,VWS V14.01,2013-09-19 18:57:00,
2013-09-19 14:02:00,87.1,69.0,30.21,West,270,2.7,3.1,55,0.00,,---,0.00,VWS V14.01,2013-09-19 19:02:00,
2013-09-19 14:07:00,87.3,68.6,30.21,NNW,338,2.0,7.6,54,0.00,,---,0.00,VWS V14.01,2013-09-19 19:07:00,
2013-09-19 14:12:00,87.3,68.1,30.21,WSW,248,4.0,6.3,53,0.00,,---,0.00,VWS V14.01,2013-09-19 19:12:00,
2013-09-19 14:17:00,87.4,68.2,30.21,NNE,22,3.4,8.5,53,0.00,,---,0.00,VWS V14.01,2013-09-19 19:17:00,
2013-09-19 14:22:00,87.4,67.7,30.21,NW,315,4.0,7.2,52,0.00,,---,0.00,VWS V14.01,2013-09-19 19:22:00,
2013-09-19 14:27:00,87.1,67.3,30.21,WNW,292,2.5,2.9,52,0.00,,---,0.00,VWS V14.01,2013-09-19 19:27:00,
2013-09-19 14:32:00,87.1,67.9,30.21,WNW,292,4.3,4.3,53,0.00,,---,0.00,VWS V14.01,2013-09-19 19:32:00,
2013-09-19 14:37:00,87.1,67.9,30.21,WNW,292,2.0,2.7,53,0.00,,---,0.00,VWS V14.01,2013-09-19 19:37:00,
2013-09-19 14:42:00,87.1,67.9,30.21,West,270,2.9,2.9,53,0.00,,---,0.00,VWS V14.01,2013-09-19 19:42:00,
2013-09-19 14:47:00,87.3,67.5,30.21,WNW,292,4.9,6.5,52,0.00,,---,0.00,VWS V14.01,2013-09-19 19:47:00,
2013-09-19 14:52:00,86.9,67.7,30.21,NW,315,2.5,3.6,53,0.00,,---,0.00,VWS V14.01,2013-09-19 19:52:00,
2013-09-19 14:57:00,86.9,67.7,30.21,North,0,2.0,2.7,53,0.00,,---,0.00,VWS V14.01,2013-09-19 19:57:00,
2013-09-19 15:02:00,87.1,67.9,30.21,NNW,338,4.7,4.7,53,0.00,,---,0.00,VWS V14.01,2013-09-19 20:02:00,
2013-09-19 15:07:00,87.1,66.8,30.21,WNW,292,4.0,6.0,51,0.00,,---,0.00,VWS V14.01,2013-09-19 20:07:00,
2013-09-19 15:12:00,87.1,67.3,30.21,WSW,248,3.1,4.7,52,0.00,,---,0.00,VWS V14.01,2013-09-19 20:12:00,
2013-09-19 15:17:00,87.1,67.9,30.21,NW,315,2.0,2.0,53,0.00,,---,0.00,VWS V14.01,2013-09-19 20:17:00,
2013-09-19 15:22:00,87.3,67.5,30.21,WSW,248,2.9,4.0,52,0.00,,---,0.00,VWS V14.01,2013-09-19 20:22:00,
2013-09-19 15:27:00,87.3,67.5,30.18,West,270,2.9,4.3,52,0.00,,---,0.00,VWS V14.01,2013-09-19 20:27:00,
2013-09-19 15:32:00,87.4,67.7,30.18,WNW,292,3.4,3.4,52,0.00,,---,0.00,VWS V14.01,2013-09-19 20:32:00,
2013-09-19 15:37:00,87.6,67.8,30.18,SW,225,2.0,5.4,52,0.00,,---,0.00,VWS V14.01,2013-09-19 20:37:00,
2013-09-19 15:42:00,87.3,66.9,30.18,WNW,292,2.7,4.0,51,0.00,,---,0.00,VWS V14.01,2013-09-19 20:42:00,
2013-09-19 15:47:00,87.3,66.4,30.18,West,270,3.8,3.8,50,0.00,,---,0.00,VWS V14.01,2013-09-19 20:47:00,
2013-09-19 15:52:00,87.4,67.1,30.18,SW,225,3.8,4.3,51,0.00,,---,0.00,VWS V14.01,2013-09-19 20:52:00,
2013-09-19 15:57:00,87.4,67.1,30.18,North,0,2.5,2.7,51,0.00,,---,0.00,VWS V14.01,2013-09-19 20:57:00,
2013-09-19 16:02:00,87.3,66.9,30.18,WNW,292,3.8,3.8,51,0.00,,---,0.00,VWS V14.01,2013-09-19 21:02:00,
2013-09-19 16:07:00,87.3,66.9,30.18,West,270,1.3,2.2,51,0.00,,---,0.00,VWS V14.01,2013-09-19 21:07:00,
2013-09-19 16:12:00,87.3,66.9,30.18,NW,315,4.3,4.3,51,0.00,,---,0.00,VWS V14.01,2013-09-19 21:12:00,
2013-09-19 16:17:00,87.3,67.5,30.18,West,270,2.0,2.5,52,0.00,,---,0.00,VWS V14.01,2013-09-19 21:17:00,
2013-09-19 16:22:00,87.3,66.9,30.18,WSW,248,2.5,3.4,51,0.00,,---,0.00,VWS V14.01,2013-09-19 21:22:00,
2013-09-19 16:27:00,87.3,66.9,30.18,NW,315,2.9,4.3,51,0.00,,---,0.00,VWS V14.01,2013-09-19 21:27:00,
2013-09-19 16:32:00,87.3,66.9,30.18,WSW,248,2.0,2.0,51,0.00,,---,0.00,VWS V14.01,2013-09-19 21:32:00,
2013-09-19 16:37:00,87.3,66.4,30.18,WSW,248,1.3,2.9,50,0.00,,---,0.00,VWS V14.01,2013-09-19 21:37:00,
2013-09-19 16:42:00,87.1,66.2,30.18,NNW,338,2.0,2.2,50,0.00,,---,0.00,VWS V14.01,2013-09-19 21:42:00,
2013-09-19 16:47:00,87.1,66.2,30.18,West,270,1.3,1.6,50,0.00,,---,0.00,VWS V14.01,2013-09-19 21:47:00,
2013-09-19 16:52:00,87.1,66.2,30.18,WSW,248,1.6,2.5,50,0.00,,---,0.00,VWS V14.01,2013-09-19 21:52:00,
2013-09-19 16:57:00,87.1,65.6,30.18,WSW,248,0.0,2.2,49,0.00,,---,0.00,VWS V14.01,2013-09-19 21:57:00,
2013-09-19 17:02:00,87.1,66.2,30.18,WSW,248,3.1,3.1,50,0.00,,---,0.00,VWS V14.01,2013-09-19 22:02:00,
2013-09-19 17:07:00,86.7,65.9,30.18,West,270,3.8,3.8,50,0.00,,---,0.00,VWS V14.01,2013-09-19 22:07:00,
2013-09-19 17:12:00,86.7,65.9,30.18,West,270,2.7,2.7,50,0.00,,---,0.00,VWS V14.01,2013-09-19 22:12:00,
2013-09-19 17:17:00,86.5,65.7,30.18,West,270,2.0,2.0,50,0.00,,---,0.00,VWS V14.01,2013-09-19 22:17:00,
2013-09-19 17:22:00,86.4,66.1,30.18,West,270,2.9,4.0,51,0.00,,---,0.00,VWS V14.01,2013-09-19 22:22:00,
2013-09-19 17:27:00,86.2,65.9,30.18,West,270,6.0,6.0,51,0.00,,---,0.00,VWS V14.01,2013-09-19 22:27:00,
2013-09-19 17:32:00,85.8,66.2,30.18,WNW,292,2.5,2.5,52,0.00,,---,0.00,VWS V14.01,2013-09-19 22:32:00,
2013-09-19 17:37:00,85.5,66.4,30.18,WSW,248,1.1,1.1,53,0.00,,---,0.00,VWS V14.01,2013-09-19 22:37:00,
2013-09-19 17:42:00,85.3,66.2,30.15,WSW,248,2.0,2.5,53,0.00,,---,0.00,VWS V14.01,2013-09-19 22:42:00,
2013-09-19 17:47:00,84.9,67.0,30.15,WSW,248,2.0,2.5,55,0.00,,---,0.00,VWS V14.01,2013-09-19 22:47:00,
2013-09-19 17:52:00,84.7,66.3,30.15,WNW,292,3.1,3.1,54,0.00,,---,0.00,VWS V14.01,2013-09-19 22:52:00,
2013-09-19 17:57:00,84.6,66.6,30.18,West,270,4.9,4.9,55,0.00,,---,0.00,VWS V14.01,2013-09-19 22:57:00,
2013-09-19 18:02:00,84.4,66.5,30.18,WSW,248,4.0,4.0,55,0.00,,---,0.00,VWS V14.01,2013-09-19 23:02:00,
2013-09-19 18:07:00,84.2,66.8,30.18,WNW,292,2.2,2.2,56,0.00,,---,0.00,VWS V14.01,2013-09-19 23:07:00,
2013-09-19 18:12:00,83.7,66.8,30.15,WSW,248,1.1,1.1,57,0.00,,---,0.00,VWS V14.01,2013-09-19 23:12:00,
2013-09-19 18:17:00,83.3,67.0,30.15,WNW,292,3.6,3.6,58,0.00,,---,0.00,VWS V14.01,2013-09-19 23:17:00,
2013-09-19 18:22:00,83.1,66.8,30.15,WSW,248,0.0,0.9,58,0.00,,---,0.00,VWS V14.01,2013-09-19 23:22:00,
2013-09-19 18:27:00,82.8,66.5,30.15,WSW,248,2.0,2.5,58,0.00,,---,0.00,VWS V14.01,2013-09-19 23:27:00,
2013-09-19 18:32:00,82.6,66.8,30.15,West,270,0.0,1.3,59,0.00,,---,0.00,VWS V14.01,2013-09-19 23:32:00,
2013-09-19 18:37:00,82.2,67.0,30.15,West,270,2.0,2.2,60,0.00,,---,0.00,VWS V14.01,2013-09-19 23:37:00,
2013-09-19 18:42:00,82.0,66.8,30.15,WSW,248,1.6,1.6,60,0.00,,---,0.00,VWS V14.01,2013-09-19 23:42:00,
2013-09-19 18:47:00,81.7,66.9,30.15,WSW,248,0.0,0.0,61,0.00,,---,0.00,VWS V14.01,2013-09-19 23:47:00,
2013-09-19 18:52:00,81.7,66.9,30.15,WSW,248,0.9,3.1,61,0.00,,---,0.00,VWS V14.01,2013-09-19 23:52:00,
2013-09-19 18:57:00,81.3,66.6,30.15,West,270,0.9,1.6,61,0.00,,---,0.00,VWS V14.01,2013-09-19 23:57:00,
2013-09-19 19:02:00,81.3,67.1,30.15,SSW,202,1.3,3.1,62,0.00,,---,0.00,VWS V14.01,2013-09-20 00:02:00,
2013-09-19 19:07:00,81.0,66.7,30.15,West,270,0.0,0.0,62,0.00,,---,0.00,VWS V14.01,2013-09-20 00:07:00,
2013-09-19 19:12:00,80.8,66.6,30.15,WSW,248,0.0,0.0,62,0.00,,---,0.00,VWS V14.01,2013-09-20 00:12:00,
2013-09-19 19:17:00,80.6,66.8,30.15,WSW,248,0.0,3.6,63,0.00,,---,0.00,VWS V14.01,2013-09-20 00:17:00,
2013-09-19 19:22:00,80.4,67.1,30.15,West,270,2.9,2.9,64,0.00,,---,0.00,VWS V14.01,2013-09-20 00:22:00,
2013-09-19 19:27:00,80.2,67.0,30.15,West,270,0.0,0.9,64,0.00,,---,0.00,VWS V14.01,2013-09-20 00:27:00,
2013-09-19 19:31:00,80.1,67.2,30.15,WNW,292,1.6,4.0,65,0.00,,---,0.00,VWS V14.01,2013-09-20 00:31:00,
2013-09-19 19:37:00,80.1,67.2,30.15,WSW,248,1.3,2.0,65,0.00,,---,0.00,VWS V14.01,2013-09-20 00:37:00,
2013-09-19 19:42:00,79.9,67.1,30.15,West,270,0.0,0.0,65,0.00,,---,0.00,VWS V14.01,2013-09-20 00:42:00,
2013-09-19 19:46:00,79.5,67.2,30.15,WSW,248,0.0,0.0,66,0.00,,---,0.00,VWS V14.01,2013-09-20 00:46:00,
2013-09-19 19:51:00,79.5,67.2,30.15,West,270,1.1,1.3,66,0.00,,---,0.00,VWS V14.01,2013-09-20 00:51:00,
2013-09-19 19:56:00,79.3,67.0,30.15,West,270,0.0,1.3,66,0.00,,---,0.00,VWS V14.01,2013-09-20 00:56:00,
2013-09-19 20:01:00,79.3,67.4,30.15,WSW,248,0.0,0.0,67,0.00,,---,0.00,VWS V14.01,2013-09-20 01:01:00,
2013-09-19 20:06:00,79.3,67.4,30.15,West,270,1.1,2.0,67,0.00,,---,0.00,VWS V14.01,2013-09-20 01:06:00,
2013-09-19 20:11:00,79.3,67.4,30.15,WSW,248,2.0,2.0,67,0.00,,---,0.00,VWS V14.01,2013-09-20 01:11:00,
2013-09-19 20:16:00,79.3,67.4,30.15,WNW,292,0.0,1.3,67,0.00,,---,0.00,VWS V14.01,2013-09-20 01:16:00,
2013-09-19 20:21:00,79.2,67.3,30.15,SW,225,4.3,4.3,67,0.00,,---,0.00,VWS V14.01,2013-09-20 01:21:00,
2013-09-19 20:26:00,79.2,67.3,30.15,WSW,248,1.6,1.6,67,0.00,,---,0.00,VWS V14.01,2013-09-20 01:26:00,
2013-09-19 20:31:00,79.2,67.3,30.15,West,270,0.0,0.0,67,0.00,,---,0.00,VWS V14.01,2013-09-20 01:31:00,
2013-09-19 20:36:00,79.2,67.3,30.15,WNW,292,1.1,2.2,67,0.00,,---,0.00,VWS V14.01,2013-09-20 01:36:00,
2013-09-19 20:41:00,79.2,67.3,30.15,West,270,1.3,2.9,67,0.00,,---,0.00,VWS V14.01,2013-09-20 01:41:00,
2013-09-19 20:46:00,79.0,67.1,30.15,West,270,0.0,0.0,67,0.00,,---,0.00,VWS V14.01,2013-09-20 01:46:00,
2013-09-19 20:51:00,79.0,67.1,30.15,WSW,248,2.7,3.6,67,0.00,,---,0.00,VWS V14.01,2013-09-20 01:51:00,
2013-09-19 20:56:00,79.0,67.1,30.15,WSW,248,2.0,2.9,67,0.00,,---,0.00,VWS V14.01,2013-09-20 01:56:00,
2013-09-19 21:01:00,78.8,66.9,30.15,WSW,248,4.0,4.0,67,0.00,,---,0.00,VWS V14.01,2013-09-20 02:01:00,
2013-09-19 21:06:00,78.8,66.9,30.15,West,270,0.0,0.0,67,0.00,,---,0.00,VWS V14.01,2013-09-20 02:06:00,
2013-09-19 21:11:00,78.6,66.8,30.15,WSW,248,0.0,0.0,67,0.00,,---,0.00,VWS V14.01,2013-09-20 02:11:00,
2013-09-19 21:16:00,78.4,66.6,30.15,WSW,248,0.0,0.0,67,0.00,,---,0.00,VWS V14.01,2013-09-20 02:16:00,
2013-09-19 21:21:00,78.4,66.6,30.15,West,270,0.0,0.0,67,0.00,,---,0.00,VWS V14.01,2013-09-20 02:21:00,
2013-09-19 21:26:00,78.3,66.8,30.15,WSW,248,0.0,0.0,68,0.00,,---,0.00,VWS V14.01,2013-09-20 02:26:00,
2013-09-19 21:31:00,78.1,66.7,30.15,WSW,248,0.0,0.0,68,0.00,,---,0.00,VWS V14.01,2013-09-20 02:31:00,
2013-09-19 21:36:00,77.9,66.5,30.15,West,270,0.0,0.0,68,0.00,,---,0.00,VWS V14.01,2013-09-20 02:36:00,
2013-09-19 21:41:00,77.9,66.5,30.15,West,270,0.0,0.0,68,0.00,,---,0.00,VWS V14.01,2013-09-20 02:41:00,
2013-09-19 21:46:00,77.7,66.3,30.15,West,270,0.0,0.0,68,0.00,,---,0.00,VWS V14.01,2013-09-20 02:46:00,
2013-09-19 21:51:00,77.7,66.3,30.15,West,270,0.0,0.0,68,0.00,,---,0.00,VWS V14.01,2013-09-20 02:51:00,
2013-09-19 21:56:00,77.5,66.6,30.18,West,270,0.0,0.0,69,0.00,,---,0.00,VWS V14.01,2013-09-20 02:56:00,
2013-09-19 22:01:00,77.5,66.6,30.18,West,270,0.0,0.0,69,0.00,,---,0.00,VWS V14.01,2013-09-20 03:01:00,
2013-09-19 22:06:00,77.5,66.6,30.18,SW,225,0.0,0.0,69,0.00,,---,0.00,VWS V14.01,2013-09-20 03:06:00,
2013-09-19 22:11:00,77.4,66.4,30.18,WSW,248,0.0,0.0,69,0.00,,---,0.00,VWS V14.01,2013-09-20 03:11:00,
2013-09-19 22:16:00,77.2,66.2,30.18,WSW,248,0.0,0.0,69,0.00,,---,0.00,VWS V14.01,2013-09-20 03:16:00,
2013-09-19 22:21:00,77.2,66.2,30.18,West,270,0.0,0.0,69,0.00,,---,0.00,VWS V14.01,2013-09-20 03:21:00,
2013-09-19 22:26:00,77.2,66.2,30.18,West,270,0.0,0.0,69,0.00,,---,0.00,VWS V14.01,2013-09-20 03:26:00,
2013-09-19 22:31:00,77.0,66.5,30.18,West,270,0.0,0.0,70,0.00,,---,0.00,VWS V14.01,2013-09-20 03:31:00,
2013-09-19 22:36:00,77.0,66.5,30.18,West,270,0.0,0.0,70,0.00,,---,0.00,VWS V14.01,2013-09-20 03:36:00,
2013-09-19 22:41:00,76.8,66.3,30.18,West,270,0.0,0.0,70,0.00,,---,0.00,VWS V14.01,2013-09-20 03:41:00,
2013-09-19 22:46:00,76.8,66.3,30.18,West,270,0.0,0.0,70,0.00,,---,0.00,VWS V14.01,2013-09-20 03:46:00,
2013-09-19 22:51:00,76.6,66.1,30.18,WSW,248,0.0,0.0,70,0.00,,---,0.00,VWS V14.01,2013-09-20 03:51:00,
2013-09-19 22:56:00,76.6,66.5,30.15,West,270,0.0,0.0,71,0.00,,---,0.00,VWS V14.01,2013-09-20 03:56:00,
2013-09-19 23:01:00,76.5,66.4,30.15,WSW,248,0.0,0.0,71,0.00,,---,0.00,VWS V14.01,2013-09-20 04:01:00,
2013-09-19 23:06:00,76.5,66.4,30.15,West,270,0.0,0.0,71,0.00,,---,0.00,VWS V14.01,2013-09-20 04:06:00,
2013-09-19 23:11:00,76.5,66.4,30.15,West,270,0.0,0.0,71,0.00,,---,0.00,VWS V14.01,2013-09-20 04:11:00,
2013-09-19 23:16:00,76.3,66.2,30.15,WSW,248,2.0,2.0,71,0.00,,---,0.00,VWS V14.01,2013-09-20 04:16:00,
2013-09-19 23:21:00,76.3,66.2,30.15,West,270,1.1,2.7,71,0.00,,---,0.00,VWS V14.01,2013-09-20 04:21:00,
2013-09-19 23:26:00,76.3,66.2,30.15,WSW,248,0.0,0.0,71,0.00,,---,0.00,VWS V14.01,2013-09-20 04:26:00,
2013-09-19 23:31:00,76.3,66.2,30.15,West,270,1.3,1.3,71,0.00,,---,0.00,VWS V14.01,2013-09-20 04:31:00,
2013-09-19 23:36:00,76.3,66.2,30.15,West,270,0.0,0.0,71,0.00,,---,0.00,VWS V14.01,2013-09-20 04:36:00,
2013-09-19 23:41:00,76.1,65.6,30.15,WNW,292,1.1,1.1,70,0.00,,---,0.00,VWS V14.01,2013-09-20 04:41:00,
2013-09-19 23:46:00,76.1,66.0,30.15,West,270,1.3,2.0,71,0.00,,---,0.00,VWS V14.01,2013-09-20 04:46:00,
2013-09-19 23:51:00,75.9,65.4,30.15,WSW,248,2.5,2.5,70,0.00,,---,0.00,VWS V14.01,2013-09-20 04:51:00,
2013-09-19 23:56:00,75.9,65.4,30.15,WSW,248,0.0,0.0,70,0.00,,---,0.00,VWS V14.01,2013-09-20 04:56:00,